Other Public Products
Issued by NWS Grand Forks, ND

Home | Current Version | Previous Version | Graphics & Text | Print | Product List | Glossary On
Versions: 1 2 3 4 5 6 7 8 9 10 11 12 13 14 15 16 17 18 19 20 21 22 23 24 25 26 27 28 29 30 31 32 33 34 35 36 37 38 39 40 41 42 43 44 45 46 47 48 49 50
128
FPUS83 KFGF 231131
OPUFGF
PRAIRIE TO PINES WEATHER ROUNDUP
NATIONAL WEATHER SERVICE EASTERN NORTH DAKOTA/GRAND FORKS ND
500 AM CST THU FEB 23 2017

 **SATELLITE DATA USED TO AUGMENT SKY COVER AT AUTOMATED STATIONS**
 *****  WEATHER ACROSS EASTERN NORTH DAKOTA  *****

CITY           SKY/WX    TMP DP  RH WIND       PRES   REMARKS
GRAND FORKS    CLOUDY    29  20  69 N6        30.02R WCI  23
GRAND FORKS AF CLOUDY    28  24  84 N7        30.02R WCI  21
GRAND CITY NWS NOT AVBL
BUXTON         NOT AVBL
DEVILS LAKE    CLOUDY    24  22  91 CALM      30.01R
FARGO          FAIR      26  24  92 NW6       30.00R WCI  19
WAHPETON ARPT  FAIR      28  27  93 N7        30.00R WCI  21
$$

 *****  WEATHER ACROSS CENTRAL AND WESTERN NORTH DAKOTA  *****

CITY           SKY/WX    TMP DP  RH WIND       PRES   REMARKS
JAMESTOWN      FAIR      23  21  92 N5        29.97S WCI  17
BISMARCK       CLOUDY    28  25  88 W3        29.99F
MINOT          FLURRIES  33  27  78 NW7       29.98R
MINOT AFB      MIX PCPN  28  27  93 NE15      30.00R WCI  17
GARRISON         N/A     27  24  89 NW5       29.97F WCI  22
WILLISTON      CLOUDY    28  26  92 SW6       30.02R WCI  22
DICKINSON      CLOUDY    24  22  91 NW3       29.96R FOG
HETTINGER      CLOUDY    27  24  89 NE5       29.96S WCI  22
$$

 *****  OTHER OBSERVATIONS NORTHEAST NORTH DAKOTA  *****

CITY           SKY/WX    TMP DP  RH WIND       PRES   REMARKS
WALHALLA       NOT AVBL
LANGDON        NOT AVBL
CAVALIER         N/A     27  19  74 N8        30.03R WCI  18
GRAFTON        CLOUDY    27  25  93 NW5       30.05R WCI  21
CANDO          NOT AVBL
FORT TOTTEN      N/A     23  23 100 CALM      29.95S
ROLLA          CLOUDY    27  27 100 N10       30.00R WCI  17
RUGBY            N/A     21  21 100 SW5       30.01R WCI  15
 ***** THE ABOVE OBSERVATIONS ARE NON NWS ARE NOT QUALITY
        CONTROLLED AND MAY MIS-REPORT RAIN FOR SNOW...
$$

 *****  OTHER OBSERVATIONS SOUTHEAST NORTH DAKOTA *****

CITY           SKY/WX    TMP DP  RH WIND       PRES   REMARKS
COOPERSTOWN    CLOUDY    28  25  86 NE6       30.01R WCI  22
VALLEY CITY    CLOUDY    27  27 100 CALM      30.01R
OAKES          NOT AVBL
GWINNER        PTSUNNY   28  27  93 N7        29.99S WCI  21
SHEYENNE NWR     N/A     23  21  93 N3        29.95S
BUFFALO        NOT AVBL
WYNDMERE         N/A     28  28 100 NW8         N/A  WCI  20
 ***** THE ABOVE OBSERVATIONS ARE NON NWS ARE NOT QUALITY
       CONTROLLED AND MAY MIS-REPORT RAIN FOR SNOW...
$$

  *****  WEATHER ACROSS NORTHERN MINNESOTA  *****

CITY           SKY/WX    TMP DP  RH WIND       PRES   REMARKS
FLAG ISLAND    CLOUDY    19  10  68 N24G30    29.96S WCI   2
WARROAD        CLOUDY    23  16  74 N10       29.97R WCI  12
ROSEAU         CLOUDY    25  18  74 N10G18    29.97S WCI  15
HALLOCK        CLOUDY    27  21  80 N8        30.01R WCI  18
THF RVR FALLS    N/A     22  18  85 MISG        N/A
HALSTAD          N/A     29  21  74 N10         N/A  WCI  19
FOSSTON        FAIR      21  19  93 N5        29.98R WCI  15
BAUDETTE       MOCLDY    21  13  71 N10       29.94R WCI  10
WASKISH        CLOUDY    25  18  74 N8        29.95R WCI  16
CROOKSTON      CLOUDY    27  21  80 N7        30.03R WCI  19
$$
  *****  WEATHER ACROSS CENTRAL AND WEST MINNESOTA  *****

CITY           SKY/WX    TMP DP  RH WIND       PRES   REMARKS
BEMIDJI        CLOUDY    23  18  81 N8        29.94R WCI  14
PARK RAPIDS    CLOUDY    26  20  77 NW3       29.93R
WADENA         MOCLDY    25  21  86 N6        29.95R WCI  18
DETROIT LAKES  FAIR      27  23  86 N6        29.97R WCI  20
MOORHEAD       FAIR      28  23  80 N9        30.02R WCI  20
FERGUS FALLS   FAIR      27  25  93 N6        30.01F WCI  20
ELBOW LAKE     FAIR      28  26  95 NW9       29.96F WCI  19
MORRIS MN      FAIR      28  28 100 N13       29.93F WCI  18
STAPLES        CLOUDY    25  23  93 NW5       29.95R WCI  19
WHEATON        FAIR      28  25  86 NW9       29.99F WCI  20
$$
  *****  WEATHER ELSEWHERE ACROSS MINNESOTA  *****

CITY           SKY/WX    TMP DP  RH WIND       PRES   REMARKS
DULUTH         FAIR      24  22  91 NW5       29.85R WCI  18
INTRNTL FALLS  CLOUDY    25  17  72 NW9       29.90F WCI  15
ELY            CLOUDY    27  21  80 NW7       29.84R WCI  19
CLOQUET        FAIR      25  21  86 NW6       29.87R WCI  18
BRAINERD       FAIR      24  20  84 N10       29.93R WCI  14
HIBBING        MOCLDY    23  21  92 NW13      29.88R WCI  11
ALEXANDRIA     FAIR      27  24  89 N8        29.93R WCI  19
SAINT CLOUD    FAIR      28  25  88 N8        29.91R WCI  20
MINNEAPOLIS    CLOUDY    34  27  75 N14       29.86R WCI  25
$$

  *****  WEATHER ACROSS SOUTH DAKOTA  *****

CITY           SKY/WX    TMP DP  RH WIND       PRES   REMARKS
SIOUX FALLS    CLOUDY    31  28  89 NE20G26   29.86F WCI  19
BROOKINGS      FAIR      29  25  85 N12       29.88S WCI  19
WATERTOWN      FAIR      27  24  89 N13       29.90F WCI  16
HURON          FAIR      28  26  92 N10       29.92F WCI  19
SISSETON         N/A     27  26  96 N10       29.97S WCI  17
ABERDEEN       FAIR      26  22  84 N7        29.98S WCI  18
MITCHELL       MOCLDY    31  27  85 N10       29.91R WCI  22
PIERRE         FAIR      28  24  85 N7        29.94S WCI  21
MOBRIDGE       FAIR      27  23  85 N6        29.94F WCI  20
RAPID CITY     CLOUDY    29  27  92 NE12      29.86R FOG     WCI  19
$$

  *****  SOME WEATHER IN NEARBY STATES *****

CITY           SKY/WX    TMP DP  RH WIND       PRES   REMARKS
GLASGOW MT     MOCLDY    25  23  92 E3        30.00S FOG
GREAT FALLS MT LGT SNOW  27  25  92 NE10      29.93R VSB 3/4 WCI  17
CHEYENNE WY    LGT SNOW  27  25  92 E12       29.62F FOG     WCI  17
SCOTTSBLUFF NE LGT SNOW  30  27  88 E14       29.73F VSB 3/4 WCI  19
OMAHA NE       CLOUDY    39  33  79 N16       29.80R
DES MOINES IA  CLOUDY    40  36  86 N15G22    29.81R
DAVENPORT IA   CLOUDY    43  41  93 N9        29.75S
CHICAGO IL     FAIR      50  44  80 W7        29.70R
EAU CLAIRE WI  CLOUDY    36  31  82 N9        29.80R
LA CROSSE WI   CLOUDY    41  33  73 NW7       29.81R
$$

  *****  SOME NATIONAL WEATHER *****

CITY           SKY/WX    TMP DP  RH WIND       PRES   REMARKS
LA GUARDIA NY  FAIR      42  38  85 NE6       29.89R
RALEIGH NC     MOCLDY    53  51  93 CALM      29.94R
ATLANTA GA     FAIR      56  55  97 E9        29.88R
NEW ORLEANS LA FAIR      57  56  96 CALM      29.79S
OKLAHOMA CITY  MOCLDY    55  46  71 S9        29.57F
ALBUQUERQUE NM FAIR      44  28  53 S10       29.68F
SALT LAKE CITY LGT SNOW  28  27  96 S5        29.69F FOG     WCI  23
LOS ANGELES CA FAIR      52  31  44 N12G23    30.04F
BOISE ID       CLOUDY    31  25  78 NW17      29.81S WCI  19
SEATTLE WA     CLOUDY    35  33  92 SE3       30.21F
$$

*** WEATHER ACROSS MANITOBA...SASKATCHEWAN AND ONTARIO ***
                ***ONTARIO***

CITY           SKY/WX    TMP DP  RH WIND       PRES   REMARKS
GERALDTON      FLURRIES  25  16  68 NW12G18   29.75R WCI  14
THUNDER BAY    MOCLDY    32  21  64 NW6       29.81R
SIOUX LOOKOUT  FLURRIES  19  10  68 NW9G20    29.87S WCI   9
TORONTO        CLOUDY    50  48  93 S7        29.62F
BIG TROUT LK   LGT SNOW   0  -6  78 NW13G20   29.86S WCI -18
PICKLE LAKE    FLURRIES   7   0  72 NW7       29.84  WCI  -5
DRYDEN         FLURRIES  19  14  79 NW10G18   29.88S WCI   8
KENORA         FLURRIES  18  12  79 NW10G18   29.93S WCI   6
$$
                *** MANITOBA***

CITY           SKY/WX    TMP DP  RH WIND       PRES   REMARKS
BRANDON        CLOUDY    21  16  79 NE8       30.02R WCI  12
DAUPHIN        CLOUDY    21  16  79 NW7       30.06S WCI  13
ISLAND LAKE    FLURRIES  -2  -8  78 NW9       30.02  WCI -18
PILOT MOUND      N/A     21  18  86 NE8         N/A  WCI  12
THE PAS        PTCLDY     3  -2  78 N7        30.11R WCI  -9
THOMPSON       FLURRIES  -9 -15  77 N9        30.14R WCI -27
WINNIPEG       FLURRIES  23  16  74 N12       30.03S WCI  12
LYNN LAKE      CLOUDY    -6 -11  77 NE8       30.14R WCI -21
CHURCHILL      CLEAR    -11 -15  84 N10       30.25R WCI -30
GILLAM         CLEAR    -17 -22  76 NW9       30.13R WCI -36
$$
                ***SASKATCHEWAN***

CITY           SKY/WX    TMP DP  RH WIND       PRES   REMARKS
ESTEVAN        FLURRIES  25  21  86 N18       30.02R WCI  11
KINDERSLEY     CLOUDY    23  16  74 NW7       30.06F WCI  15
LLOYDMINSTER   FLURRIES  14  12  92 NW7       30.07R WCI   4
PRINCE ALBERT  LGT SNOW  19  16  86 SE5       30.03F WCI  13
REGINA         CLOUDY    23  14  68 NE7       30.05R WCI  15
YORKTON        CLEAR     14  12  92 W7        30.05R WC



USA.gov is the U.S. government's official web portal to all federal, state and local government web resources and services.